(292402) = 1999 VN100 = 2006 SG283 = 2006 SH369

Discovered at Socorro on 2006-09-26 by LINEAR.

Orbit

Orbit type: Main Belt

Note: WebGL enabled browser required.

epoch2023-09-13.0
epoch JD2460200.5
perihelion date2021-02-06.77849
perihelion JD2459252.27849
argument of perihelion (°)319.88792
ascending node (°)49.84266
inclination (°)3.03403
eccentricity0.2061122
perihelion distance (AU)1.8594710
Tisserand w.r.t. Jupiter3.5
ΔV w.r.t. Earth (km/sec)8.5
semimajor axis (AU)2.3422339
mean anomaly (°)260.71634
mean daily motion (°/day)0.27495300
aphelion distance (AU)2.825
period (years)3.58
P-vector [x]0.98492319
P-vector [y]0.16916770
P-vector [z]0.03617468
Q-vector [x]-0.16819606
Q-vector [y]0.88754655
Q-vector [z]0.42891864
absolute magnitude17.96
phase slope0.15
uncertainty0
referenceMPEC 2023-Y63
observations used197
oppositions14
arc length (days)8585
first opposition used1999
last opposition used2023
residual rms (arc-secs)0.92
perturbers coarse indicatorM-v
perturbers precise indicator003Ek
first observation date used1999-11-09.0
last observation date used2023-05-12.0
computer nameMPCLINUX
JD of orbit computation2456552.137522
perihelion JD uncertainty (days)1.3356E-04
argument of perihelion uncertainty (°)1.5070E-04
ascending node uncertainty (°)1.4514E-04
inclination uncertainty (°)5.8953E-06
eccentricity uncertainty 1.0618E-07
perihelion distance uncertainty (AU)2.6153E-07
Minimum Orbit Intersection Distances (in AU)
for orbit epoch: 2460200.5, reference: E2023-Y63
Mercury1.50363
Venus1.13378
Earth0.85958
Mars0.44686
Jupiter2.62805
Saturn6.61249
Uranus15.6535
Neptune27.8096

Observations

213 total observations over interval: 1999 11 09.29251 – 2023 05 12.417237
These data are available for download (format description).

Date (UT) J2000 RA J2000 Dec Magn Location Ref
1999 11 09.29251 03 20 28.25 +18 19 39.9 19.6   704 – Lincoln Laboratory ETS, New Mexico MPS 8769
1999 11 09.30694 03 20 27.25 +18 19 37.5 20.0   704 – Lincoln Laboratory ETS, New Mexico MPS 8769
1999 11 09.32136 03 20 26.25 +18 19 36.6 19.6   704 – Lincoln Laboratory ETS, New Mexico MPS 8769
1999 11 09.33575 03 20 25.36 +18 19 35.2 19.9   704 – Lincoln Laboratory ETS, New Mexico MPS 8769
1999 11 12.32245 03 17 14.80 +18 15 26.4 19.9   704 – Lincoln Laboratory ETS, New Mexico MPS 8769
1999 11 12.33675 03 17 13.79 +18 15 24.2 19.6   704 – Lincoln Laboratory ETS, New Mexico MPS 8769
1999 11 12.35106 03 17 12.88 +18 15 23.4 19.9   704 – Lincoln Laboratory ETS, New Mexico MPS 8769
2004 01 27.27372 08 10 37.86 +24 59 48.5 21.9 V 691 – Steward Observatory, Kitt Peak-Spacewatch MPS 286936
2004 01 27.30116 08 10 35.90 +24 59 53.9 22.1 V 691 – Steward Observatory, Kitt Peak-Spacewatch MPS 286936
2004 01 27.33024 08 10 33.90 +24 59 59.7 21.6 V 691 – Steward Observatory, Kitt Peak-Spacewatch MPS 286936
2005 04 11.35239 14 15 11.26 -11 53 50.9 21.2 R 695 – Kitt Peak MPS 286936
2005 04 11.43038 14 15 06.85 -11 53 32.1   695 – Kitt Peak MPS 286936
2006 08 28.33113 00 51 43.46 +00 10 56.2 21.2   705 – Apache Point MPS 195559
2006 08 28.33446 00 51 43.43 +00 10 56.0 20.4 V 705 – Apache Point MPS 195559
2006 09 12.34031 00 46 27.74 -00 21 08.0 20.3   705 – Apache Point MPS 195559
2006 09 12.34115 00 46 27.71 -00 21 08.2 19.6 V 705 – Apache Point MPS 195559
2006 09 17.34981 00 43 11.95 -00 37 18.9 20.4   705 – Apache Point MPS 195559
2006 09 17.35065 00 43 11.91 -00 37 19.0 19.6 V 705 – Apache Point MPS 195559
2006 09 18.27170 00 42 32.32 -00 40 26.4 19.5 V 703 – Catalina Sky Survey MPC 58058
2006 09 18.27884 00 42 31.93 -00 40 29.8 19.3 V 703 – Catalina Sky Survey MPC 58058
2006 09 18.28600 00 42 31.64 -00 40 29.5 19.5 V 703 – Catalina Sky Survey MPC 58058
2006 09 18.29315 00 42 31.35 -00 40 31.8 19.2 V 703 – Catalina Sky Survey MPC 58058
2006 09 18.30222 00 42 30.82 -00 40 33.1 19.1 R 699 – Lowell Observatory-LONEOS MPC 58058
2006 09 18.32416 00 42 29.75 -00 40 38.1   699 – Lowell Observatory-LONEOS MPC 58058
2006 09 18.33147 00 42 29.38 -00 40 40.3 20.3   705 – Apache Point MPS 195559
2006 09 18.33230 00 42 29.35 -00 40 40.5 19.6 V 705 – Apache Point MPS 195559
2006 09 18.34607 00 42 28.70 -00 40 42.6   699 – Lowell Observatory-LONEOS MPC 58058
2006 09 18.36802 00 42 27.63 -00 40 47.6   699 – Lowell Observatory-LONEOS MPC 58058
2006 09 22.22210 00 39 29.42 -00 54 16.7 19.0 C 704 – Lincoln Laboratory ETS, New Mexico MPS 294440
2006 09 22.23341 00 39 28.88 -00 54 19.5 19.1 C 704 – Lincoln Laboratory ETS, New Mexico MPS 294440
2006 09 22.24469 00 39 28.01 -00 54 17.1 17.3 C 704 – Lincoln Laboratory ETS, New Mexico MPS 294440
2006 09 22.25598 00 39 27.73 -00 54 22.5 18.6 C 704 – Lincoln Laboratory ETS, New Mexico MPS 294440
2006 09 26.23689 00 36 08.75 -01 08 23.1 19.7   704 – Lincoln Laboratory ETS, New Mexico MPS 182979
2006 09 26.24884 00 36 08.10 -01 08 26.1 20.1   704 – Lincoln Laboratory ETS, New Mexico MPS 182979
2006 09 26.26073 00 36 07.49 -01 08 28.7 20.1   704 – Lincoln Laboratory ETS, New Mexico MPS 182979
2006 09 26.27260 00 36 06.77 -01 08 31.6 19.7   704 – Lincoln Laboratory ETS, New Mexico MPS 182979
2006 09 26.28556 00 36 06.13 -01 08 34.7 19.1 C 704 – Lincoln Laboratory ETS, New Mexico MPS 293222
2006 09 26.29769 00 36 05.48 -01 08 36.7 18.9 C 704 – Lincoln Laboratory ETS, New Mexico MPS 293222
2006 09 26.31000 00 36 04.84 -01 08 39.2 19.0 C 704 – Lincoln Laboratory ETS, New Mexico MPS 293222
2006 09 26.32224 00 36 04.16 -01 08 42.0 18.9 C 704 – Lincoln Laboratory ETS, New Mexico MPS 293222
2006 09 28.25094 00 34 24.58 -01 15 17.8 19.2   704 – Lincoln Laboratory ETS, New Mexico MPS 182979
2006 09 28.26322 00 34 23.86 -01 15 20.6 19.2   704 – Lincoln Laboratory ETS, New Mexico MPS 182979
2006 09 28.27538 00 34 23.15 -01 15 22.5 18.8   704 – Lincoln Laboratory ETS, New Mexico MPS 182979
2006 09 30.29840 00 32 37.18 -01 22 04.6 19.1   704 – Lincoln Laboratory ETS, New Mexico MPS 182979
2006 09 30.31065 00 32 36.50 -01 22 07.1 19.2   704 – Lincoln Laboratory ETS, New Mexico MPS 182979
2006 09 30.32290 00 32 35.78 -01 22 10.7 19.2   704 – Lincoln Laboratory ETS, New Mexico MPS 182979
2006 09 30.33514 00 32 35.08 -01 22 14.0 19.4   704 – Lincoln Laboratory ETS, New Mexico MPS 182979
2006 10 17.18933 00 18 57.09 -01 59 25.6 19.3 V 703 – Catalina Sky Survey MPS 183091
2006 10 17.19626 00 18 56.77 -01 59 26.3 19.0 V 703 – Catalina Sky Survey MPS 183091
2006 10 17.20324 00 18 56.44 -01 59 25.8 19.3 V 703 – Catalina Sky Survey MPS 183091
2006 10 17.21021 00 18 56.16 -01 59 28.0 19.3 V 703 – Catalina Sky Survey MPS 183091
2006 10 19.21220 00 17 38.48 -02 00 48.9 19.5 R 644 – Palomar Mountain/NEAT MPS 184187
2006 10 19.23360 00 17 37.63 -02 00 48.7 20.1 R 644 – Palomar Mountain/NEAT MPS 184187
2006 10 19.25388 00 17 36.75 -02 00 48.9 20.2 R 644 – Palomar Mountain/NEAT MPS 184187
2006 11 14.13129 00 12 22.57 -01 01 25.3 20.1 V G96 – Mt. Lemmon Survey MPS 187085
2006 11 14.14093 00 12 22.68 -01 01 22.2 20.2 V G96 – Mt. Lemmon Survey MPS 187085
2006 11 14.15042 00 12 22.82 -01 01 19.3 20.2 V G96 – Mt. Lemmon Survey MPS 187085
2006 11 14.15977 00 12 22.93 -01 01 17.0 20.4 V G96 – Mt. Lemmon Survey MPS 187085
2006 11 15.26454 00 12 39.82 -00 55 41.1 21.6   705 – Apache Point MPS 195559
2006 11 15.26537 00 12 39.83 -00 55 40.7 20.6 V 705 – Apache Point MPS 195559
2006 11 16.24216 00 12 57.17 -00 50 32.5 21.4   705 – Apache Point MPS 195559
2006 11 16.24299 00 12 57.18 -00 50 32.3 20.6 V 705 – Apache Point MPS 195559
2006 11 17.24593 00 13 16.91 -00 45 04.7 22.7   705 – Apache Point MPS 195559
2006 11 17.24676 00 13 16.93 -00 45 04.4 21.3 V 705 – Apache Point MPS 195559
2006 11 19.24138 00 14 02.12 -00 33 40.7 21.3   705 – Apache Point MPS 195559
2006 11 19.24221 00 14 02.14 -00 33 40.6 20.6 V 705 – Apache Point MPS 195559
2006 11 24.23363 00 16 28.80 -00 02 07.9 21.4   705 – Apache Point MPS 195559
2006 11 24.23447 00 16 28.83 -00 02 07.6 20.8 V 705 – Apache Point MPS 195559
2006 11 29.23012 00 19 41.29 +00 33 28.4 22.2   705 – Apache Point MPS 195559
2006 11 29.23094 00 19 41.31 +00 33 28.6 21.2 V 705 – Apache Point MPS 195559
2008 02 28.32924 11 08 56.54 +10 13 45.3 20.3 V G96 – Mt. Lemmon Survey MPS 286936
2008 02 28.33790 11 08 55.93 +10 13 49.9 21.3 V G96 – Mt. Lemmon Survey MPS 286936
2008 02 28.34666 11 08 55.39 +10 13 52.9 21.6 V G96 – Mt. Lemmon Survey MPS 286936
2008 02 28.35537 11 08 54.88 +10 13 56.1 21.2 V G96 – Mt. Lemmon Survey MPS 286936
2010 11 05.39046 07 08 51.57 +24 45 25.9 21.5 V G96 – Mt. Lemmon Survey MPS 355413
2010 11 05.39862 07 08 51.75 +24 45 26.4 21.7 V G96 – Mt. Lemmon Survey MPS 355413
2010 11 05.40681 07 08 51.90 +24 45 27.7 20.4 V G96 – Mt. Lemmon Survey MPS 355413
2010 11 05.41495 07 08 51.97 +24 45 28.2 20.7 V G96 – Mt. Lemmon Survey MPS 355413
2010 12 09.28993 06 59 01.65 +26 16 44.6 21.1 V 691 – Steward Observatory, Kitt Peak-Spacewatch MPS 358995
2010 12 09.30521 06 59 00.73 +26 16 47.5 20.5 V 691 – Steward Observatory, Kitt Peak-Spacewatch MPS 358995
2010 12 09.32050 06 58 59.84 +26 16 51.0 20.7 V 691 – Steward Observatory, Kitt Peak-Spacewatch MPS 358995
2010 12 13.29206 06 55 06.57 +26 29 41.2   691 – Steward Observatory, Kitt Peak-Spacewatch MPS 358995
2010 12 13.30983 06 55 05.40 +26 29 45.3   691 – Steward Observatory, Kitt Peak-Spacewatch MPS 358995
2010 12 13.32760 06 55 04.30 +26 29 48.6   691 – Steward Observatory, Kitt Peak-Spacewatch MPS 358995
2013 07 14.49975 22 11 01.517 -17 02 30.75 20.5 w F51 – Pan-STARRS 1, Haleakala MPS 472584
2013 07 14.51580 22 11 01.356 -17 02 33.84 20.5 w F51 – Pan-STARRS 1, Haleakala MPS 472584
2013 07 14.53124 22 11 01.205 -17 02 36.84 20.4 w F51 – Pan-STARRS 1, Haleakala MPS 472584
2013 07 14.54760 22 11 01.034 -17 02 39.94 20.3 w F51 – Pan-STARRS 1, Haleakala MPS 472584
2013 08 24.42772 21 43 59.014 -20 12 13.01 19.2 i F51 – Pan-STARRS 1, Haleakala MPS 474830
2013 08 24.43825 21 43 58.393 -20 12 15.45 19.3 i F51 – Pan-STARRS 1, Haleakala MPS 474830
2013 08 29.36295 21 39 34.979 -20 28 48.19 19.6 w F51 – Pan-STARRS 1, Haleakala MPS 474830
